TimePST,TemperatureF,Dew PointF,Humidity,Sea Level PressureIn,VisibilityMPH,Wind Direction,Wind SpeedMPH,Gust SpeedMPH,PrecipitationIn,Events,Conditions,WindDirDegrees,DateUTC
12:53 AM,50.0,36.0,59,29.95,10.0,NNW,5.8,-,N/A,,Partly Cloudy,340,2013-01-28 08:53:00
1:53 AM,52.0,34.0,50,29.97,10.0,West,15.0,25.3,N/A,,Overcast,280,2013-01-28 09:53:00
2:53 AM,50.0,37.9,63,29.99,10.0,Calm,Calm,-,N/A,,Partly Cloudy,0,2013-01-28 10:53:00
4:53 AM,48.9,32.0,52,29.97,10.0,NNE,6.9,-,N/A,,Clear,20,2013-01-28 12:53:00
5:53 AM,45.0,37.0,74,29.99,10.0,Variable,3.5,-,N/A,,Clear,0,2013-01-28 13:53:00
6:53 AM,46.0,36.0,68,30.01,10.0,Calm,Calm,-,N/A,,Overcast,0,2013-01-28 14:53:00
7:53 AM,48.9,35.1,59,30.02,10.0,SSW,4.6,-,N/A,,Scattered Clouds,200,2013-01-28 15:53:00
9:53 AM,54.0,33.1,45,30.04,10.0,South,3.5,-,N/A,,Clear,180,2013-01-28 17:53:00
10:53 AM,57.0,30.9,37,30.05,10.0,East,4.6,-,N/A,,Clear,90,2013-01-28 18:53:00
11:53 AM,59.0,27.0,29,30.04,10.0,ENE,4.6,-,N/A,,Clear,60,2013-01-28 19:53:00
12:53 PM,60.1,25.0,26,30.03,10.0,NNW,3.5,-,N/A,,Clear,330,2013-01-28 20:53:00
1:53 PM,61.0,24.1,24,30.02,10.0,ESE,3.5,-,N/A,,Partly Cloudy,120,2013-01-28 21:53:00
2:53 PM,61.0,24.1,24,30.01,10.0,East,5.8,-,N/A,,Mostly Cloudy,100,2013-01-28 22:53:00
3:53 PM,60.1,23.0,24,30.02,10.0,Calm,Calm,-,N/A,,Scattered Clouds,0,2013-01-28 23:53:00
4:53 PM,57.9,26.1,30,30.03,10.0,Calm,Calm,-,N/A,,Scattered Clouds,0,2013-01-29 00:53:00
5:53 PM,57.9,19.9,23,30.05,10.0,NW,8.1,-,N/A,,Clear,320,2013-01-29 01:53:00
6:53 PM,57.0,19.9,24,30.08,10.0,NW,12.7,-,N/A,,Clear,320,2013-01-29 02:53:00
7:53 PM,54.0,23.0,30,30.08,10.0,NW,5.8,-,N/A,,Clear,320,2013-01-29 03:53:00
8:53 PM,51.1,25.0,36,30.09,10.0,Calm,Calm,-,N/A,,Clear,0,2013-01-29 04:53:00
9:53 PM,51.1,25.0,36,30.10,10.0,Calm,Calm,-,N/A,,Clear,0,2013-01-29 05:53:00
10:53 PM,48.9,26.1,41,30.12,10.0,Calm,Calm,-,N/A,,Clear,0,2013-01-29 06:53:00
11:53 PM,48.9,27.0,43,30.12,10.0,Calm,Calm,-,N/A,,Clear,0,2013-01-29 07:53:00